Flag for Australia Weather past 2 weeks in Hobart, Tasmania, Australia

Now
46 °F

Clear.


Feels Like: 40 °F
Forecast: 41 / 48 °F
Wind: 15 mph from Northwest

Location: Hobart Airport

Current Time: Jul 2, 2015 at 1:14:08 AM

Latest Report: Jul 2, 2015 at 12:30 AM


Visibility: N/A

Pressure: 29.68 "Hg

Humidity: 66%

Dew point: 36 °F

Location of HobartLocation

Historic Weather in Hobart — Graph

°F

Hobart temperature yesterday

Maximum temperature yesterday: 59 °F (at 2:30 PM)
Minimum temperature yesterday: 39 °F (at 3:00 AM)
Average temperature yesterday: 49 °F

Past Weeks' High & Low Weather Summary

 TemperatureHumidityPressure
High61 °F (Jun 24, 11:00 AM)100% (Jun 17, 7:30 AM)30.33 "Hg (Jun 17, 7:30 AM)
Low34 °F (Jun 19, 5:00 AM)38% (Jun 27, 4:30 PM)29.65 "Hg (Jul 1, 6:30 PM)
Average49 °F68%30.14 "Hg
* Reported Midnight between Jun 16 and Jun 17 — Midnight between Jul 1 and Jul 2, Hobart, Weather by CustomWeather, © 2015

Note: Actual official high and low records may vary slightly from our data, if they occured in-between our weather recording intervals... More about our weather records

Advertising

Hobart weather history for previous 24 hours

 ConditionsComfort  
Time TempWeatherWind HumidityBarometerVisibility
12:00 AM
Thu, Jul 2
46 °FSprinkles. Passing clouds.16 mph66%29.68 "HgN/A
11:30 PM
Wed, Jul 1
48 °FPassing clouds.23 mph58%29.68 "HgN/A
11:00 PM46 °FClear.20 mph66%29.68 "HgN/A
10:30 PM48 °FClear.20 mph58%29.68 "HgN/A
10:00 PM46 °FClear.18 mph62%29.68 "HgN/A
9:30 PM48 °FPassing clouds.20 mph54%29.68 "HgN/A
9:01 PM48 °FPartly cloudy.18 mph58%29.71 "HgN/A
8:04 PM50 °FRain. Overcast.17 mph71%29.71 "HgN/A
7:30 PM54 °FPassing clouds.17 mph54%29.65 "HgN/A
7:00 PM54 °FPassing clouds.17 mph54%29.65 "HgN/A
6:30 PM54 °FPassing clouds.18 mph51%29.65 "HgN/A
6:00 PM54 °FPassing clouds.18 mph54%29.68 "HgN/A
5:30 PM55 °FPassing clouds.16 mph47%29.71 "HgN/A
5:00 PM55 °FPassing clouds.16 mph47%29.74 "HgN/A
4:48 PM55 °FPassing clouds.17 mph51%29.74 "HgN/A
4:30 PM55 °FPassing clouds.17 mph51%29.77 "HgN/A
4:00 PM55 °FPassing clouds.17 mph55%29.77 "HgN/A
3:30 PM55 °FPassing clouds.22 mph55%29.80 "HgN/A
3:00 PM57 °FScattered clouds.18 mph51%29.80 "HgN/A
2:30 PM59 °FPartly sunny.15 mph45%29.83 "HgN/A
1:30 PM57 °FScattered clouds.18 mph48%29.86 "HgN/A
1:00 PM57 °FPartly sunny.16 mph48%29.89 "HgN/A
12:30 PM57 °FPartly sunny.16 mph48%29.92 "HgN/A
12:00 PM57 °FPartly sunny.13 mph51%29.95 "HgN/A
11:30 AM55 °FPartly sunny.10 mph51%29.98 "HgN/A
11:00 AM55 °FPassing clouds.12 mph51%30.01 "HgN/A
10:30 AM52 °FScattered clouds.7 mph58%30.04 "HgN/A
10:00 AM50 °FPassing clouds.9 mph62%30.07 "HgN/A
9:30 AM48 °FPassing clouds.10 mph62%30.07 "HgN/A
9:00 AM46 °FScattered clouds.8 mph66%30.09 "HgN/A
8:30 AM45 °FPassing clouds.7 mph71%30.09 "HgN/A
8:00 AM43 °FPassing clouds.8 mph71%30.09 "HgN/A
7:30 AM41 °FPassing clouds.7 mph81%30.09 "HgN/A
7:00 AM41 °FPassing clouds.6 mph76%30.09 "HgN/A
6:30 AM43 °FPassing clouds.8 mph71%30.09 "HgN/A
6:00 AM41 °FPassing clouds.8 mph76%30.12 "HgN/A
5:30 AM43 °FPassing clouds.7 mph71%30.12 "HgN/A
5:00 AM41 °FPassing clouds.7 mph76%30.12 "HgN/A
4:30 AM43 °FPassing clouds.9 mph71%30.12 "HgN/A
4:00 AM45 °FPassing clouds.9 mph66%30.12 "HgN/A
3:00 AM39 °FPassing clouds.10 mph87%30.15 "HgN/A
2:30 AM41 °FClear.8 mph81%30.18 "Hg10 mi
2:00 AM41 °FClear.9 mph81%30.18 "Hg10 mi
1:00 AM45 °FClear.10 mph71%30.18 "Hg10 mi
Weather by CustomWeather, © 2015

See weather overviewHow to use our weather pages